Погода в Прииртышском

Россия / Тюменская область     58°10′06″N   68°20′57″E
темп.,
°C
ветер,
м/с
пор.,
м/с
влажн.,
%
обл.,
%
осадки,
мм/ч
давл.,
гПа
погр.,
м
24 июля, сб
сб2423:00+18ссв389198 0.8 1002163
02:00+16ссв3785100 0.0 1004193
05:00+16ссв3789100 0.1 1003192
08:00+18ссв3477100 0.0 1004369
11:00+21с2365100 0.0 1004770
14:00+18с3482100 0.3 1004121
17:00+15ссз5996100 3.3 1005399
20:00+15ссв4797100 0.6 1004298
25 июля, вс
вс2523:00+15с3697100 0.6 1005231
02:00+13с3598100 0.0 1005136
05:00+14с2596100 0.1 1005177
08:00+15с4691100 1.2 1006303
11:00+19с4661100 1.2 1006830
14:00+20ссв3661100 0.0 1007748
17:00+19с597986 2.1 1007478
20:00+16ссз41075100 1.1 1009274
26 июля, пн
пн2623:00+13сз5135946 1.1 1010298
02:00+11сз6136439 0.0 1010363
05:00+10сз5127488 0.0 1012353
08:00+14ссз710595 0.0 1012807
11:00+17сз794596 0.0 10121942
14:00+16сз6952100 0.0 10131619
17:00+15сз5854100 0.0 10131195
20:00+14зсз3762100 0.0 1012255
27 июля, вт
вт2723:00+13з4106497 0.0 1012327
02:00+12з387196 0.0 1012194
05:00+10з378585 0.0 1011145
08:00+15зюз3666100 0.0 1010335
11:00+18зюз6752100 0.0 10091034
14:00+21з4648100 0.1 10071996
17:00+14з3793100 2.3 1008304
20:00+13з259414 0.3 1007151
28 июля, ср
ср2823:00+11ссз339318 0.4 100855
02:00+11сз389082 0.0 1008207
05:00+7сз3591100 0.0 100989
08:00+11сз487651 0.0 1010561
11:00+14зсз6747100 0.0 10101892
14:00+15зсз6850100 0.0 10102029
17:00+15зсз4855100 0.1 10101487
20:00+12з2270100 0.0 101013